Location: Berlin
(52.5171°N, 13.3759°E)
Time: 22:47:45
(UTC+01:00)

ISS - Visible Passes

Search period start: 23 January 2018 00:00
Search period end: 02 February 2018 00:00
Orbit: 402 x 407 km, 51.6° (Epoch: 23 January)

Date Brightness Start Highest point End Pass type
(mag) Time Alt. Az. Time Alt. Az. Time Alt. Az.
26 Jan -1.3 18:55:39 10° S 18:56:26 14° S 18:56:26 14° S visible
27 Jan -1.5 18:04:40 10° SSE 18:05:49 11° SE 18:06:28 11° SE visible
27 Jan -1.0 19:38:32 10° SW 19:39:08 14° SW 19:39:08 14° SW visible
28 Jan -2.5 18:46:31 10° SSW 18:49:04 28° SSE 18:49:04 28° SSE visible
29 Jan -2.0 17:54:43 10° SSW 17:57:12 20° SSE 17:58:57 14° ESE visible
29 Jan -1.8 19:30:01 10° WSW 19:31:37 26° WSW 19:31:37 26° WSW visible
30 Jan -3.3 18:37:47 10° SW 18:40:55 45° SSE 18:41:26 41° SE visible
30 Jan -0.3 20:13:59 10° W 20:14:05 11° W 20:14:05 11° W visible
31 Jan -2.7 17:45:40 10° SW 17:48:38 32° SSE 17:51:12 13° E visible
31 Jan -2.6 19:21:36 10° WSW 19:23:51 40° WSW 19:23:51 40° WSW visible
01 Feb -3.7 18:29:15 10° WSW 18:32:29 63° SSE 18:33:35 36° E visible
01 Feb -0.6 20:05:36 10° W 20:06:14 15° W 20:06:14 15° W visible
